Location: Dvur Kralove nad Labem
(50.4330°N, 15.8170°E)
Time: 21:18:27
(UTC+02:00)

ISS - Pass Details

Date: 22 May 2022
Orbit: 414 x 420 km, 51.6° (Epoch: 30 June)

Event Time Altitude Azimuth Distance (km) Brightness Sun altitude
Rises 00:44:05 0° 286° (WNW) 2,366 0.3 -19.2°
Reaches altitude 10° 00:46:21 10° 275° (W) 1,497 -0.9 -19.2°
Enters shadow 00:47:27 18° 263° (W) 1,120 -1.7 -19.2°
